Location: Barra
(40.8333°N, 14.3167°E)
Time: 12:18:31
(UTC+00:00)

Daily predictions for brighter satellites

Satellite Brightness Start Highest point End
(mag) Time Altitude Azimuth Time Altitude Azimuth Time Altitude Azimuth
Cosmos 2181 Rocket 4.3 15:55:12 10° SSE 16:01:21 50° E 16:07:26 10° NNE
Cosmos 2237 Rocket 3.8 15:59:43 10° WSW 16:04:42 32° WNW 16:09:44 10° N
PSLV R/B 4.1 16:03:13 10° S 16:07:19 80° WSW 16:11:24 10° NNW
CZ-4B R/B 3.3 16:02:32 10° SE 16:07:39 52° ENE 16:12:48 10° N
Cosmos 1666 Rocket 3.7 16:03:42 10° N 16:08:04 57° E 16:12:27 10° SSE
CZ-3B R/B 3.1 16:05:43 10° SSW 16:09:20 21° SE 16:11:16 10° E
Cosmos 44 3.5 16:04:13 10° NNW 16:09:35 78° ENE 16:15:00 10° SE
H-2A R/B 2.4 16:06:19 10° SSE 16:10:34 81° ENE 16:14:41 10° N
MOS 1-B 4.5 16:07:05 10° SSE 16:12:53 88° WSW 16:18:44 10° NNW
Cosmos 1943 4.3 16:08:26 10° SSE 16:12:54 25° ESE 16:17:23 10° NE
Cosmos 1538 Rocket 4.5 16:11:26 10° S 16:16:30 44° ESE 16:21:35 10° NNE
Cosmos 2369 Rocket 2.9 16:12:04 10° N 16:17:07 31° ENE 16:22:05 10° ESE
NOAA 12 4.1 16:12:03 10° SSE 16:17:17 61° ENE 16:22:32 10° N
CENTAUR R/B 4.0 16:14:39 10° SE 16:17:30 14° ESE 16:20:30 10° ENE
Cosmos 1943 Rocket 2.3 16:13:25 10° NNW 16:18:50 50° ENE 16:24:15 10° SE
ADEOS Rocket 4.1 16:11:13 10° N 16:18:55 66° WNW 16:26:26 10° SSW
H-2A R/B 2.1 16:18:48 10° NNE 16:23:03 82° WNW 16:27:23 10° SSW
NOAA 6 4.4 16:18:55 10° S 16:24:03 69° WSW 16:29:11 10° NNW
Okean O Rocket 1.6 16:19:51 10° SSE 16:24:08 62° ENE 16:28:29 10° N
Cosmos 1782 3.1 16:21:26 10° SSE 16:25:11 43° E 16:28:58 10° NNE
Okean-O 4.2 16:23:44 10° E 16:26:03 14° ENE 16:28:23 10° NNE
Cosmos 1933 3.7 16:26:50 10° SSW 16:30:50 68° W 16:34:55 10° N
ISS -1.5 16:29:42 10° NNW 16:31:26 13° N 16:32:58 11° NNE
Cosmos 1633 Rocket 3.0 16:27:55 10° N 16:32:18 87° ENE 16:36:39 10° S
Cosmos 2218 Rocket 3.9 16:32:43 10° N 16:38:54 77° E 16:45:04 10° S
SKYMED 2 4.2 16:35:12 10° NNE 16:39:11 35° E 16:43:08 10° SSE
Cosmos 2366 rocket 3.9 16:33:41 10° N 16:39:52 76° E 16:46:00 10° SSE
ERS-2 2.4 16:36:36 10° NNE 16:40:08 45° E 16:43:39 10° S
Envisat 4.2 16:35:30 10° S 16:40:22 46° W 16:45:16 10° NNW
Meteor 1-25 Rocket 4.3 16:35:01 10° N 16:40:41 86° W 16:46:25 10° S
Cosmos 489 Rocket 4.4 16:35:20 10° SSW 16:41:30 81° ESE 16:47:46 10° NNE
Lacrosse 5 rocket 3.3 16:45:12 10° WNW 16:47:37 16° NNW 16:49:59 10° NNE
SL-23 DEB 4.4 16:45:27 10° WSW 16:48:55 57° NNW 16:52:39 18° NE
NOSS 3-2 (A) 3.7 16:44:46 10° S 16:49:57 43° ESE 16:54:01 18° NE
FengYun 1-2 T 4.2 16:48:56 10° SSE 16:54:29 89° WSW 17:00:01 10° NNW
Feng Yun 1-1 Rocket 4.3 16:48:56 10° SSE 16:54:36 62° ENE 17:00:08 10° N
SL-16 R/B 3.7 16:52:44 10° WSW 16:57:49 33° WNW 17:02:55 10° N
CZ-4B R/B 1.4 16:56:29 10° N 16:59:36 71° WNW 17:02:46 10° SSW
BREEZE-M DEB (TANK) 3.6 17:01:36 10° WNW 17:03:17 18° NNW 17:03:26 18° N
SMAP 4.3 16:59:14 10° S 17:03:39 43° W 17:08:06 10° NNW
USA 215 3.4 16:59:21 20° ENE 17:03:53 58° SE 17:10:18 10° SSW
YAOGAN 1 4.0 17:09:19 21° NNE 17:09:19 21° NNE 17:11:08 10° N
Cosmos 1500 3.3 17:04:08 10° N 17:07:52 51° E 17:11:36 10° SSE
USA 238 DEB 3.7 17:02:42 10° SSW 17:09:03 56° ESE 17:13:06 24° NE
USA 238 3.7 17:02:48 10° SSW 17:09:08 56° ESE 17:13:10 24° NE
Cosmos 1656 Rocket 3.8 17:07:20 10° NNW 17:12:46 47° ENE 17:17:20 14° SE
SL-24 DEB 4.1 17:08:53 10° N 17:13:37 80° E 17:18:18 10° S
Cosmos 1470 Rocket 4.2 17:10:32 10° NNW 17:14:46 56° W 17:18:59 10° S
MOS 1 Rocket 3.9 17:13:26 20° NNE 17:16:54 46° E 17:21:59 10° S
Cosmos 158 Rocket 3.8 17:13:32 10° S 17:18:27 66° ESE 17:20:54 29° NNE
Cosmos 1515 Rocket 4.3 17:14:43 10° SSW 17:19:00 53° W 17:23:19 10° N
CZ-2C R/B 3.0 17:14:29 10° SSE 17:19:19 51° ENE 17:24:00 10° N
Cosmos 2263 4.0 17:16:02 10° NNW 17:21:39 72° ENE 17:27:13 10° SSE
Cosmos 923 Rocket 3.9 17:16:38 10° S 17:21:48 74° ESE 17:24:49 26° NNE
Cosmos 1934 Rocket 4.3 17:17:51 10° N 17:23:49 41° ENE 17:29:41 10° SE
USA 281 3.3 17:19:46 10° SE 17:26:03 51° ENE 17:32:22 10° NNW
Cosmos 1238 Rocket 3.1 17:22:50 10° N 17:26:57 60° E 17:31:58 10° SSE
COSMO-SKYMED 1 2.8 17:23:06 11° N 17:27:18 67° WNW 17:31:35 10° SSW
Nadezhda 3 Rocket 3.9 17:21:47 10° S 17:28:08 83° E 17:34:32 10° N
Cosmos 1689 Rocket 2.9 17:29:02 44° SSW 17:29:02 44° SSW 17:31:10 10° SSW
X-37B 1.8 17:26:59 10° WNW 17:29:28 35° NNW 17:29:28 35° NNW
SAR-Lupe-4 4.0 17:29:13 30° N 17:30:50 61° WNW 17:34:21 10° SSW
Meteor 2-6 Rocket 4.2 17:25:43 10° S 17:31:20 84° W 17:36:50 10° N
Cosmos 2228 Rocket 3.1 17:26:59 10° S 17:31:31 85° W 17:34:29 22° N
H-2A R/B 2.5 17:35:17 40° NE 17:35:17 40° NE 17:39:03 10° N
Cosmos 1812 2.9 17:31:36 10° SSW 17:35:24 71° W 17:36:35 41° N
USA 267 3.9 17:34:11 33° NE 17:35:25 36° NNE 17:41:16 10° NW
Cosmos 1939 Rocket 3.8 17:33:11 10° S 17:36:55 46° W 17:40:42 10° NNW
CZ-4 R/B 3.0 17:41:27 24° N 17:41:27 24° N 17:43:07 10° N
Cosmos 1821 Rocket 4.0 17:33:29 10° N 17:39:47 87° W 17:46:08 10° S
Cosmos 2084 3.9 17:36:08 10° SSW 17:39:33 47° SSE 17:39:33 47° SSE
Meteor 1-11 Rocket 3.7 17:37:09 10° N 17:42:55 63° ENE 17:48:46 10° SSE
IRS-1C Rocket 4.5 17:37:51 10° S 17:43:05 65° WSW 17:48:20 10° NNW
BREEZE-M DEB (TANK) 2.6 17:39:58 10° WSW 17:42:53 51° SW 17:42:53 51° SW
PSLV R/B 4.2 17:42:20 39° N 17:43:38 63° WNW 17:47:38 10° SSW
Cosmos 44 Rocket 3.4 17:40:08 10° NNW 17:45:08 63° NE 17:45:08 63° NE
Lacrosse 4 Rocket 2.3 17:44:27 10° SSW 17:46:59 37° S 17:46:59 37° S
Cosmos 1680 Rocket 3.5 17:43:25 10° SSW 17:48:40 85° WNW 17:50:19 46° NNE
CZ-2D R/B 4.5 17:50:11 10° S 17:53:47 41° W 17:57:26 10° NNW
Cosmos 1943 4.1 17:51:10 10° SW 17:56:36 46° WNW 17:59:58 22° N
Cosmos 2369 Rocket 3.5 17:55:58 10° NW 18:01:10 38° WSW 18:06:19 10° S
Okean-O 3.1 17:57:41 10° S 18:02:01 57° W 18:06:24 10° NNW
Cosmos 1461 3.5 17:58:57 10° SW 18:02:44 60° SW 18:02:44 60° SW
CENTAUR R/B 2.3 18:01:05 10° SW 18:06:50 86° NW 18:07:44 68° NNE
Cosmos 2112 Rocket 4.3 18:04:03 10° SSW 18:09:17 65° WNW 18:09:53 60° NNW
NOSS 3-2 (C) 3.3 18:09:28 10° SW 18:15:01 77° NW 18:15:10 76° NW
Meteor 1-27 Rocket 3.9 18:14:35 10° SSW 18:20:03 66° W 18:20:11 66° WNW
BREEZE-M DEB (TANK) 4.4 18:14:28 10° WSW 18:19:59 38° WNW 18:19:59 38° WNW
USA 215 3.9 18:46:42 46° NNW 18:46:46 46° NNW 18:52:55 10° WSW
